Elkins, WV

11:47 PM EST on February 23, 2017 (GMT -0500)
Elkins-Randolph County

Weather History for KEKN - July, 2013

Change the Weather History Date:

Wednesday, July 3, 2013

  Actual Average Record
Temperature  
Mean Temperature 73 °F 70 °F  
Max Temperature 82 °F 81 °F 92 °F (1911)
Min Temperature 63 °F 58 °F 40 °F (1988)
Degree Days  
Heating Degree Days 0 1  
Month to date heating degree days 0 3  
Since 1 June heating degree days 12 58  
Since 1 July heating degree days 0 3  
Cooling Degree Days 8 5  
Month to date cooling degree days 22 15  
Year to date cooling degree days 144 130  
Since 1 June cooling degree days 119 107  
Growing Degree Days 22 (Base 50)    
Moisture  
Dew Point 63 °F    
Average Humidity 74    
Maximum Humidity 93    
Minimum Humidity 54    
Precipitation  
Precipitation 0.03 in 0.17 in 1.54 in (1908)
Month to date precipitation 0.44 0.52  
Year to date precipitation 21.00 24.13  
Snow  
Snow 0.00 in - - ()
Month to date snowfall 0.0  
Since 1 September snowfall 77.5  
Snow Depth 0.00 in    
Sea Level Pressure  
Sea Level Pressure 30.19 in    
Wind  
Wind Speed 4 mph (South)    
Max Wind Speed 14 mph    
Max Gust Speed 18 mph    
Visibility 10 miles    
Events Rain    
T = Trace of Precipitation, MM = Missing Value Source: NWS Daily Summary

Daily Weather History Graph

Daily Weather History Graph

Search for Another Location

Airport or City:

Trip Planner

Search our weather history database for the weather conditions in past years. The results will help you decide how hot, cold, wet, or windy it might be!

Date:

Astronomy

Jul. 03, 2013 Rise Set
Actual Time 5:58 AM EDT 8:48 PM EDT
Civil Twilight 5:27 AM EDT 9:20 PM EDT
Nautical Twilight 4:47 AM EDT 10:00 PM EDT
Astronomical Twilight 4:01 AM EDT 10:45 PM EDT
Moon 2:34 AM EDT (7/3) 4:58 PM EDT (7/3)
Length of Visible Light 15h 53m
Length of Day
14h 49m
Waning Crescent, 18% of the Moon is Illuminated
Jul 3
Waning Crescent
Jul 8
New
Jul 15
First Quarter
Jul 22
Full
Jul 29
Last Quarter

Hourly Weather History & Observations

Time (EDT) Temp. Heat Index Dew Point Humidity Pressure Visibility Wind Dir Wind Speed Gust Speed Precip Events Conditions
12:00 AM 71.6 °F - 62.6 °F 73% 30.16 in 10.0 mi South 3.5 mph - N/A   Overcast
12:51 AM 68.0 °F - 64.0 °F 87% 30.13 in 10.0 mi Calm Calm - 0.01 in   Scattered Clouds
1:51 AM 69.1 °F - 63.0 °F 81% 30.14 in 10.0 mi SE 5.8 mph - N/A   Clear
2:51 AM 64.9 °F - 62.1 °F 90% 30.14 in 10.0 mi Calm Calm - N/A   Clear
3:51 AM 69.1 °F - 62.1 °F 78% 30.14 in 10.0 mi South 5.8 mph - N/A   Clear
4:51 AM 69.1 °F - 61.0 °F 75% 30.15 in 10.0 mi SSE 3.5 mph - N/A   Partly Cloudy
5:51 AM 64.0 °F - 61.0 °F 90% 30.18 in 10.0 mi Calm Calm - N/A   Clear
6:51 AM 64.9 °F - 62.1 °F 90% 30.20 in 10.0 mi Calm Calm - N/A   Clear
7:51 AM 68.0 °F - 63.0 °F 84% 30.21 in 10.0 mi Calm Calm - N/A   Clear
8:51 AM 71.1 °F - 64.9 °F 81% 30.22 in 10.0 mi Calm Calm - N/A   Clear
9:51 AM 75.0 °F - 64.0 °F 69% 30.22 in 10.0 mi SSW 5.8 mph - N/A   Clear
10:51 AM 77.0 °F - 64.0 °F 64% 30.23 in 10.0 mi SSW 5.8 mph - N/A   Partly Cloudy
11:51 AM 80.1 °F 81.7 °F 64.0 °F 58% 30.22 in 10.0 mi Variable 3.5 mph - N/A   Partly Cloudy
12:51 PM 80.1 °F 81.5 °F 63.0 °F 56% 30.22 in 10.0 mi SSW 6.9 mph - N/A   Scattered Clouds
1:51 PM 81.0 °F 82.7 °F 64.9 °F 58% 30.21 in 10.0 mi SW 9.2 mph - N/A   Partly Cloudy
2:51 PM 81.0 °F 82.7 °F 64.9 °F 58% 30.20 in 10.0 mi South 4.6 mph - N/A   Mostly Cloudy
3:51 PM 79.0 °F - 63.0 °F 58% 30.20 in 10.0 mi SSE 6.9 mph - 0.00 in   Mostly Cloudy
4:51 PM 78.1 °F - 63.0 °F 60% 30.20 in 10.0 mi Variable 6.9 mph - 0.00 in   Overcast
5:51 PM 75.9 °F - 63.0 °F 64% 30.20 in 10.0 mi South 10.4 mph 18.4 mph N/A   Partly Cloudy
6:51 PM 75.0 °F - 63.0 °F 66% 30.19 in 10.0 mi SSE 4.6 mph - 0.00 in   Mostly Cloudy
7:51 PM 73.0 °F - 64.0 °F 73% 30.19 in 10.0 mi Variable 4.6 mph - 0.00 in   Mostly Cloudy
8:51 PM 71.1 °F - 63.0 °F 75% 30.21 in 10.0 mi Calm Calm - N/A   Mostly Cloudy
9:51 PM 69.1 °F - 64.9 °F 87% 30.22 in 10.0 mi Calm Calm - 0.00 in   Scattered Clouds
10:51 PM 66.9 °F - 64.9 °F 93% 30.25 in 10.0 mi Calm Calm - 0.00 in Rain Light Rain
11:51 PM 66.9 °F - 64.9 °F 93% 30.23 in 10.0 mi Calm Calm - 0.03 in   Scattered Clouds